Home   Weather   Vienna   Past weeks
Flag for Austria

Past Weather in Vienna, Vienna, Austria — Yesterday and Last 2 Weeks

Now
45 °F

Clear.


Feels Like: 38 °F
Forecast: 50 / 38 °F
Wind: 15 mph from Northwest

Location: Vienna Schwechat-Flughafen Airport

Current Time: Mar 18, 2019 at 9:17:09 pm

Latest Report: Mar 18, 2019 at 8:20 pm


Visibility: 10 mi

Pressure: 30.12 "Hg

Humidity: 61%

Dew Point: 32 °F

Location of ViennaLocation

Past Weather in Vienna — Graph

°F

Vienna Temperature Yesterday

Maximum temperature yesterday: 68 °F (at 3:20 pm)
Minimum temperature yesterday: 30 °F (at 5:50 am)
Average temperature yesterday: 50 °F

High & Low Weather Summary for the Past Weeks

 TemperatureHumidityPressure
High68 °F (Mar 7, 1:50 pm)100% (Mar 17, 12:50 am)30.24 "Hg (Mar 17, 12:50 am)
Low27 °F (Mar 12, 10:20 pm)30% (Mar 4, 5:20 pm)29.42 "Hg (Mar 4, 3:50 pm)
Average48 °F62%29.85 "Hg
* Reported Mar 3 8:20 pm — Mar 18 8:20 pm, Vienna. Weather by CustomWeather, © 2019

Note: Actual official high and low records may vary slightly from our data, if they occured in-between our weather recording intervals... More about our weather records

Advertising

Vienna Weather History for the Previous 24 Hours

Scroll right to see more
 ConditionsComfort  
Time TempWeatherWind HumidityBarometerVisibility
8:20 pm
Mon, Mar 18
45 °FClear.15 mph61%30.12 "Hg10 mi
7:50 pm45 °FClear.14 mph61%30.12 "Hg10 mi
7:20 pm45 °FClear.15 mph61%30.12 "Hg10 mi
6:50 pm45 °FPassing clouds.16 mph61%30.09 "HgN/A
6:20 pm45 °FPassing clouds.15 mph61%30.09 "HgN/A
5:50 pm45 °FPartly sunny.14 mph61%30.07 "HgN/A
5:20 pm46 °FPartly sunny.15 mph53%30.07 "HgN/A
4:50 pm46 °FBroken clouds.16 mph53%30.04 "HgN/A
4:20 pm46 °FBroken clouds.18 mph53%30.04 "HgN/A
3:50 pm48 °FBroken clouds.16 mph50%30.04 "HgN/A
3:20 pm48 °FBroken clouds.15 mph50%30.04 "HgN/A
2:50 pm48 °FOvercast.15 mph50%30.04 "HgN/A
2:20 pm48 °FMostly cloudy.14 mph50%30.04 "HgN/A
1:50 pm48 °FMore clouds than sun.13 mph50%30.04 "HgN/A
1:20 pm46 °FOvercast.14 mph53%30.04 "HgN/A
12:50 pm46 °FBroken clouds.14 mph53%30.04 "HgN/A
12:20 pm46 °FBroken clouds.15 mph53%30.04 "HgN/A
11:50 am46 °FBroken clouds.15 mph53%30.04 "HgN/A
11:20 am46 °FPartly sunny.16 mph53%30.01 "HgN/A
10:50 am46 °FOvercast.17 mph53%30.04 "HgN/A
10:20 am46 °FOvercast.15 mph57%30.01 "HgN/A
9:50 am46 °FBroken clouds.17 mph53%30.01 "HgN/A
9:20 am45 °FBroken clouds.17 mph61%30.01 "HgN/A
8:50 am45 °FPartly sunny.18 mph61%30.01 "HgN/A
8:20 am45 °FPartly sunny.18 mph61%30.01 "HgN/A
7:50 am45 °FPartly sunny.17 mph66%29.98 "HgN/A
7:20 am45 °FPartly sunny.18 mph66%29.98 "HgN/A
6:50 am45 °FPartly sunny.22 mph66%29.95 "HgN/A
6:20 am45 °FOvercast.20 mph66%29.95 "HgN/A
5:50 am45 °FOvercast.20 mph66%29.92 "HgN/A
5:20 am45 °FOvercast.21 mph66%29.92 "HgN/A
4:50 am45 °FOvercast.17 mph66%29.89 "HgN/A
4:20 am45 °FOvercast.18 mph66%29.89 "HgN/A
3:50 am45 °FOvercast.17 mph66%29.89 "HgN/A
3:20 am45 °FPassing clouds.21 mph71%29.89 "HgN/A
2:50 am45 °FPartly cloudy.18 mph71%29.89 "HgN/A
2:20 am45 °FPartly cloudy.16 mph71%29.89 "HgN/A
1:50 am45 °FPassing clouds.24 mph76%29.89 "HgN/A
1:20 am46 °FPassing clouds.25 mph71%29.86 "HgN/A
12:50 am48 °FPartly cloudy.28 mph66%29.83 "HgN/A
12:20 am50 °FPartly cloudy.23 mph62%29.80 "HgN/A
11:50 pm
Sun, Mar 17
52 °FPassing clouds.28 mph62%29.74 "HgN/A
11:20 pm57 °FClear.23 mph48%29.68 "Hg10 mi
10:50 pm57 °FClear.17 mph55%29.65 "Hg10 mi
10:20 pm55 °FClear.13 mph72%29.65 "Hg10 mi
9:50 pm54 °FClear.9 mph72%29.62 "Hg10 mi
9:20 pm54 °FClear.14 mph72%29.59 "Hg10 mi
Weather by CustomWeather, © 2019

See weather overview